Orbital Elements at Epoch 2459200.5 (2020-Dec-17.0) TDB
Reference: JPL 23 (heliocentric ecliptic J2000)
Element | Value | Uncertainty (1-sigma) | Units |
e | .0621033259640419 | 4.0194e-08 | |
a | 2.592797246188734 | 1.3086e-08 | au |
q | 2.431775913650005 | 1.0765e-07 | au |
i | 1.97787004808699 | 3.6673e-06 | deg |
node | 248.9057911872682 | 0.00013448 | deg |
peri | 141.1434473998719 | 0.00013953 | deg |
M | 62.87372195369818 | 3.6488e-05 | deg |
tp | 2458934.171323186412 (2020-Mar-25.67132319) | 0.00015419 | TDB |
period | 1524.934752924267 4.18 | 1.1545e-05 3.161e-08 | d yr |
n | .2360756742605884 | 1.7873e-09 | deg/d |
Q | 2.753818578727463 | 1.3899e-08 | au |
|
| | Orbit Determination Parameters
Additional Information
|